This demonstration page uses our WeatherBlox Daily Observations layout. Learn more.

Left ArrowRight Arrow

41.55636, -103.73856

Hourly Observations for February 22, 2015

Temp ( °F °C ) Dew Point ( °F °C ) Humidity (%) Winds ( mph kmh ) Pressure ( in mb ) Visibility ( mi km ) Precip ( " mm )
12:53 am 00:53 Cloudy 17 -8.3 6 -14.4 62 62 NNW 15 24 30.5 1033 10 16.0934 0 0
1:53 am 01:53 Partly Cloudy 15 -9.4 4 -15.6 61 61 NNW 16 26 30.5 1033 10 16.0934 0 0
2:53 am 02:53 Cloudy 13 -10.6 4 -15.6 67 67 NNW 10 17 30.52 1034 10 16.0934 0 0
3:53 am 03:53 Mostly Clear 10 -12.2 4 -15.6 76 76 WNW 6 9 30.55 1035 10 16.0934 0 0
4:53 am 04:53 Partly Cloudy 9 -12.8 3 -16.1 77 77 WNW 7 11 30.6 1036 10 16.0934 0 0
5:53 am 05:53 Mostly Clear 9 -12.8 2 -16.7 73 73 NNW 15 24 30.61 1037 10 16.0934 0 0
6:53 am 06:53 Cloudy 10 -12.2 3 -16.1 73 73 N 8 13 30.63 1037 10 16.0934 0 0
7:53 am 07:53 Mostly Cloudy 11 -11.7 3 -16.1 70 70 NNW 12 19 30.65 1038 10 16.0934 0 0
8:53 am 08:53 Mostly Sunny 14 -10 0 -17.8 53 53 N 9 15 30.66 1038 10 16.0934 0 0
9:53 am 09:53 Mostly Sunny 16 -8.9 1 -17.2 51 51 NNE 7 11 30.64 1038 10 16.0934 0 0
10:53 am 10:53 Mostly Sunny 19 -7.2 2 -16.7 47 47 NNE 8 13 30.62 1037 10 16.0934 0 0
11:53 am 11:53 Mostly Sunny 20 -6.7 3 -16.1 48 48 VRB 6 9 30.59 1036 10 16.0934 0 0
12:53 pm 12:53 Mostly Cloudy 19 -7.2 2 -16.7 47 47 N 3 6 30.59 1036 10 16.0934 0 0
1:53 pm 13:53 Cloudy 20 -6.7 3 -16.1 48 48 Calm 30.57 1035 10 16.0934 0 0
2:53 pm 14:53 Cloudy 20 -6.7 3 -16.1 48 48 N 6 9 30.57 1035 10 16.0934 0 0
3:53 pm 15:53 Cloudy 20 -6.7 4 -15.6 50 50 N 3 6 30.59 1036 10 16.0934 0 0
4:53 pm 16:53 Cloudy 19 -7.2 4 -15.6 51 51 NNE 5 7 30.61 1037 10 16.0934 0 0
5:53 pm 17:53 Cloudy 19 -7.2 4 -15.6 51 51 Calm 30.63 1037 10 16.0934 0 0
6:53 pm 18:53 Cloudy 19 -7.2 3 -16.1 49 49 Calm 30.65 1038 10 16.0934 0 0
7:53 pm 19:53 Cloudy 18 -7.8 3 -16.1 52 52 ENE 5 7 30.66 1038 10 16.0934 0 0
8:53 pm 20:53 Cloudy with Light Snow 17 -8.3 4 -15.6 56 56 SE 9 15 30.67 1039 10 16.0934 0 0.0254
9:53 pm 21:53 Cloudy 17 -8.3 4 -15.6 56 56 SSE 9 15 30.67 1039 10 16.0934 0 0.0254
10:53 pm 22:53 Cloudy 16 -8.9 5 -15 62 62 SSE 7 11 30.67 1039 10 16.0934 0 0
11:53 pm 23:53 Cloudy 16 -8.9 6 -14.4 65 65 S 7 11 30.67 1039 10 16.0934 0 0

Powered by AerisWeather